This demonstration page uses our WeatherBlox Daily Observations layout. Learn more.

Left ArrowRight Arrow

38.20091, -84.87328

Hourly Observations for February 28, 2015

Temp ( °F °C ) Dew Point ( °F °C ) Humidity (%) Winds ( mph kmh ) Pressure ( in mb ) Visibility ( mi km ) Precip ( " mm )
12:53 am 00:53 undefined 17 -8.3 3 -16.1 54 54 NNE 3 6 30.67 1039 10 16 0.00 0.00
1:53 am 01:53 undefined 16 -8.9 3 -16.1 56 56 ENE 7 11 30.67 1039 10 16 0.00 0.00
2:53 am 02:53 undefined 16 -8.9 3 -16.1 56 56 ENE 7 11 30.67 1039 10 16 0.00 0.00
3:53 am 03:53 undefined 16 -8.9 3 -16.1 56 56 E 7 11 30.66 1038 10 16 0.00 0.00
4:53 am 04:53 undefined 16 -8.9 3 -16.1 56 56 ENE 8 13 30.66 1038 10 16 0.00 0.00
5:53 am 05:53 undefined 16 -8.9 3 -16.1 56 56 ENE 8 13 30.68 1039 10 16 0.00 0.00
6:53 am 06:53 undefined 16 -8.9 4 -15.6 59 59 ENE 9 15 30.69 1039 10 16 0.00 0.00
7:53 am 07:53 undefined 17 -8.3 4 -15.6 56 56 ENE 8 13 30.71 1040 10 16 0.00 0.00
8:53 am 08:53 undefined 18 -7.8 5 -15 57 57 ENE 8 13 30.72 1040 10 16 0.00 0.00
9:53 am 09:53 undefined 19 -7.2 6 -14.4 57 57 E 8 13 30.72 1040 10 16 0.00 0.00
10:53 am 10:53 undefined 22 -5.6 9 -12.8 57 57 E 8 13 30.71 1040 10 16 0.00 0.00
11:53 am 11:53 undefined 25 -3.9 10 -12.2 53 53 ENE 7 11 30.69 1039 10 16 0.00 0.00
12:53 pm 12:53 undefined 28 -2.2 11 -11.7 49 49 ENE 8 13 30.65 1038 10 16 0.00 0.00
1:53 pm 13:53 undefined 29 -1.7 13 -10.6 51 51 E 8 13 30.63 1037 10 16 0.00 0.00
2:53 pm 14:53 undefined 30 -1.1 14 -10 51 51 ESE 12 19 30.58 1036 10 16 0.00 0.00
3:53 pm 15:53 undefined 31 -0.6 14 -10 49 49 E 9 15 30.57 1035 10 16 0.00 0.00
4:53 pm 16:53 undefined 32 0 16 -8.9 52 52 E 10 17 30.56 1035 10 16 0.00 0.00
5:53 pm 17:53 undefined 32 0 16 -8.9 52 52 ENE 6 9 30.54 1034 10 16 0.00 0.00
6:53 pm 18:53 undefined 31 -0.6 16 -8.9 54 54 E 7 11 30.53 1034 10 16 0.00 0.00
7:53 pm 19:53 undefined 31 -0.6 16 -8.9 54 54 E 6 9 30.51 1033 10 16 0.00 0.00
8:53 pm 20:53 undefined 32 0 18 -7.8 56 56 E 5 7 30.49 1033 10 16 0.00 0.00
9:53 pm 21:53 undefined 32 0 17 -8.3 54 54 N 5 7 30.51 1033 10 16 0.00 0.00
10:53 pm 22:53 undefined 32 0 17 -8.3 54 54 NNE 3 6 30.48 1032 10 16 0.00 0.00
11:53 pm 23:53 undefined 32 0 15 -9.4 50 50 N 5 7 30.48 1032 10 16 0.00 0.00

Powered by AerisWeather